• In Russia
  • List of Countries
  • For 7 days
  • Water Temperature
  • Satellite Maps
  • Weather Map
  • Weather Widgets
  • user-avatar
    Login

    Hourly Weather Asuan

    Today, 21 March, Thursday

    Time Temperature Precipitation Wind Pressure Humidity
    00:00 +25°C° 0 mm 5 mps 742 mmHg 17%
    01:00 +23°C° 0 mm 5 mps 742 mmHg 19%
    02:00 +23°C° 0 mm 5 mps 742 mmHg 21%
    03:00 +22°C° 0 mm 4 mps 742 mmHg 23%
    04:00 +21°C° 0 mm 4 mps 742 mmHg 25%
    05:00 +21°C° 0 mm 4 mps 742 mmHg 27%
    06:00 +22°C° 0 mm 4 mps 742 mmHg 26%
    07:00 +23°C° 0 mm 4 mps 743 mmHg 24%
    08:00 +25°C° 0 mm 4 mps 743 mmHg 23%
    09:00 +27°C° 0 mm 4 mps 743 mmHg 20%
    10:00 +29°C° 0 mm 4 mps 743 mmHg 16%
    11:00 +32°C° 0 mm 4 mps 743 mmHg 13%
    12:00 +33°C° 0 mm 4 mps 743 mmHg 12%
    13:00 +35°C° 0 mm 4 mps 742 mmHg 12%
    14:00 +36°C° 0 mm 4 mps 742 mmHg 11%
    15:00 +36°C° 0 mm 4 mps 742 mmHg 12%
    16:00 +35°C° 0 mm 4 mps 741 mmHg 12%
    17:00 +35°C° 0 mm 5 mps 741 mmHg 12%
    18:00 +34°C° 0 mm 4 mps 741 mmHg 14%
    19:00 +32°C° 0 mm 4 mps 742 mmHg 16%
    20:00 +29°C° 0 mm 4 mps 742 mmHg 17%
    21:00 +29°C° 0 mm 4 mps 742 mmHg 18%
    22:00 +28°C° 0 mm 4 mps 743 mmHg 19%
    23:00 +27°C° 0 mm 4 mps 743 mmHg 20%

    Tomorrow, 22 March, Friday

    Time Temperature Precipitation Wind Pressure Humidity
    00:00 +27°C° 0 mm 4 mps 743 mmHg 21%
    01:00 +26°C° 0 mm 4 mps 743 mmHg 21%
    02:00 +26°C° 0 mm 4 mps 743 mmHg 22%
    03:00 +25°C° 0 mm 4 mps 743 mmHg 22%
    04:00 +23°C° 0 mm 4 mps 743 mmHg 23%
    05:00 +24°C° 0 mm 3 mps 743 mmHg 23%
    06:00 +25°C° 0 mm 4 mps 743 mmHg 21%
    07:00 +26°C° 0 mm 4 mps 744 mmHg 19%
    08:00 +28°C° 0 mm 5 mps 744 mmHg 17%
    09:00 +29°C° 0 mm 5 mps 744 mmHg 15%
    10:00 +32°C° 0 mm 5 mps 744 mmHg 14%
    11:00 +33°C° 0 mm 5 mps 743 mmHg 13%
    12:00 +34°C° 0 mm 5 mps 743 mmHg 12%
    13:00 +34°C° 0 mm 5 mps 742 mmHg 12%
    14:00 +35°C° 0 mm 5 mps 741 mmHg 11%
    15:00 +35°C° 0 mm 5 mps 741 mmHg 11%
    16:00 +34°C° 0 mm 5 mps 741 mmHg 11%
    17:00 +34°C° 0 mm 5 mps 741 mmHg 11%
    18:00 +33°C° 0 mm 4 mps 741 mmHg 12%
    19:00 +30°C° 0 mm 4 mps 741 mmHg 13%
    20:00 +29°C° 0 mm 3 mps 742 mmHg 14%
    21:00 +28°C° 0 mm 3 mps 742 mmHg 15%
    22:00 +28°C° 0 mm 3 mps 742 mmHg 15%
    23:00 +27°C° 0 mm 3 mps 742 mmHg 16%

    Day after tomorrow, 23 March, Saturday

    Time Temperature Precipitation Wind Pressure Humidity
    00:00 +27°C° 0 mm 3 mps 742 mmHg 16%
    01:00 +27°C° 0 mm 3 mps 741 mmHg 16%
    02:00 +27°C° 0 mm 3 mps 741 mmHg 16%
    03:00 +26°C° 0 mm 2 mps 741 mmHg 18%
    04:00 +25°C° 0 mm 2 mps 741 mmHg 19%
    05:00 +24°C° 0 mm 2 mps 741 mmHg 20%
    06:00 +26°C° 0 mm 2 mps 741 mmHg 19%
    07:00 +27°C° 0 mm 3 mps 741 mmHg 17%
    08:00 +29°C° 0 mm 3 mps 741 mmHg 16%
    09:00 +30°C° 0 mm 3 mps 741 mmHg 15%
    10:00 +33°C° 0 mm 3 mps 740 mmHg 14%
    11:00 +34°C° 0 mm 3 mps 740 mmHg 12%
    12:00 +35°C° 0 mm 3 mps 739 mmHg 12%
    13:00 +36°C° 0 mm 3 mps 739 mmHg 12%
    14:00 +37°C° 0 mm 2 mps 738 mmHg 12%
    15:00 +38°C° 0 mm 2 mps 738 mmHg 11%
    16:00 +38°C° 0 mm 2 mps 737 mmHg 11%
    17:00 +37°C° 0 mm 1 mps 737 mmHg 11%
    18:00 +36°C° 0 mm 2 mps 737 mmHg 12%
    19:00 +34°C° 0 mm 2 mps 738 mmHg 14%
    20:00 +31°C° 0 mm 2 mps 738 mmHg 15%
    21:00 +31°C° 0 mm 2 mps 738 mmHg 16%
    22:00 +30°C° 0 mm 2 mps 738 mmHg 17%
    23:00 +30°C° 0 mm 2 mps 738 mmHg 18%

    24 March, Sunday

    Time Temperature Precipitation Wind Pressure Humidity
    00:00 +29°C° 0 mm 2 mps 737 mmHg 18%
    01:00 +28°C° 0 mm 2 mps 737 mmHg 19%
    02:00 +27°C° 0 mm 1 mps 736 mmHg 20%
    03:00 +27°C° 0 mm 1 mps 736 mmHg 21%
    04:00 +26°C° 0 mm 1 mps 736 mmHg 22%
    05:00 +26°C° 0 mm 1 mps 736 mmHg 23%
    06:00 +27°C° 0 mm 1 mps 736 mmHg 22%
    07:00 +29°C° 0 mm 1 mps 737 mmHg 20%
    08:00 +30°C° 0 mm 1 mps 737 mmHg 18%
    09:00 +32°C° 0 mm 2 mps 737 mmHg 16%
    10:00 +35°C° 0 mm 3 mps 737 mmHg 14%
    11:00 +37°C° 0 mm 3 mps 737 mmHg 11%
    12:00 +37°C° 0 mm 5 mps 736 mmHg 10%
    13:00 +39°C° 0 mm 7 mps 735 mmHg 8%
    14:00 +39°C° 0 mm 8 mps 735 mmHg 7%
    15:00 +38°C° 0 mm 8 mps 735 mmHg 8%
    16:00 +37°C° 0 mm 8 mps 735 mmHg 9%
    17:00 +35°C° 0 mm 8 mps 735 mmHg 11%
    18:00 +34°C° 0 mm 7 mps 736 mmHg 12%
    19:00 +32°C° 0 mm 7 mps 736 mmHg 14%
    20:00 +30°C° 0 mm 6 mps 737 mmHg 15%
    21:00 +29°C° 0 mm 7 mps 737 mmHg 17%
    22:00 +29°C° 0 mm 7 mps 738 mmHg 19%
    23:00 +28°C° 0 mm 8 mps 738 mmHg 21%

    25 March, Monday

    Time Temperature Precipitation Wind Pressure Humidity
    00:00 +27°C° 0 mm 7 mps 738 mmHg 23%
    01:00 +26°C° 0 mm 7 mps 738 mmHg 24%
    02:00 +24°C° 0 mm 7 mps 738 mmHg 25%
    03:00 +24°C° 0 mm 7 mps 739 mmHg 26%
    04:00 +23°C° 0 mm 7 mps 739 mmHg 27%
    05:00 +22°C° 0 mm 7 mps 739 mmHg 28%
    06:00 +22°C° 0 mm 7 mps 740 mmHg 28%
    07:00 +23°C° 0 mm 8 mps 741 mmHg 29%
    08:00 +23°C° 0 mm 9 mps 741 mmHg 30%
    09:00 +24°C° 0 mm 9 mps 741 mmHg 27%
    10:00 +26°C° 0 mm 9 mps 742 mmHg 24%
    11:00 +27°C° 0 mm 9 mps 742 mmHg 22%
    12:00 +28°C° 0 mm 8 mps 741 mmHg 20%
    13:00 +28°C° 0 mm 8 mps 741 mmHg 18%
    14:00 +29°C° 0 mm 8 mps 740 mmHg 16%
    15:00 +29°C° 0 mm 7 mps 740 mmHg 17%
    16:00 +28°C° 0 mm 7 mps 740 mmHg 18%
    17:00 +28°C° 0 mm 7 mps 741 mmHg 18%
    18:00 +27°C° 0 mm 6 mps 741 mmHg 20%
    19:00 +26°C° 0 mm 5 mps 741 mmHg 22%
    20:00 +25°C° 0 mm 5 mps 742 mmHg 25%
    21:00 +23°C° 0 mm 5 mps 742 mmHg 27%
    22:00 +22°C° 0 mm 4 mps 742 mmHg 29%
    23:00 +22°C° 0 mm 4 mps 742 mmHg 31%

    26 March, Tuesday

    Time Temperature Precipitation Wind Pressure Humidity
    00:00 +21°C° 0 mm 4 mps 742 mmHg 33%
    01:00 +21°C° 0 mm 4 mps 742 mmHg 34%
    02:00 +20°C° 0 mm 4 mps 742 mmHg 36%
    03:00 +20°C° 0 mm 4 mps 742 mmHg 36%
    04:00 +19°C° 0 mm 4 mps 743 mmHg 36%
    05:00 +19°C° 0 mm 4 mps 743 mmHg 35%
    06:00 +20°C° 0 mm 4 mps 743 mmHg 32%
    07:00 +21°C° 0 mm 4 mps 744 mmHg 29%
    08:00 +22°C° 0 mm 4 mps 745 mmHg 25%
    09:00 +23°C° 0 mm 4 mps 745 mmHg 23%
    10:00 +25°C° 0 mm 4 mps 745 mmHg 21%
    11:00 +26°C° 0 mm 4 mps 744 mmHg 20%
    12:00 +27°C° 0 mm 4 mps 744 mmHg 18%
    13:00 +28°C° 0 mm 4 mps 743 mmHg 17%
    14:00 +29°C° 0 mm 4 mps 743 mmHg 15%
    15:00 +29°C° 0 mm 4 mps 743 mmHg 15%
    16:00 +29°C° 0 mm 5 mps 743 mmHg 15%
    17:00 +29°C° 0 mm 5 mps 743 mmHg 15%
    18:00 +27°C° 0 mm 5 mps 743 mmHg 16%
    19:00 +26°C° 0 mm 4 mps 744 mmHg 18%
    20:00 +25°C° 0 mm 4 mps 744 mmHg 19%
    21:00 +23°C° 0 mm 4 mps 744 mmHg 19%
    22:00 +23°C° 0 mm 4 mps 744 mmHg 20%
    23:00 +22°C° 0 mm 4 mps 745 mmHg 21%
    Show more